This demonstration page uses our WeatherBlox Daily Observations layout. Learn more.

Hourly Observations for July 18, 2019

Temp ( °F °C ) Dew Point ( °F °C ) Humidity (%) Winds ( mph kmh ) Pressure ( in mb ) Visibility ( mi km ) Precip ( " mm )
12:15 am 00:15 Clear 85 29.5 67 19.7 56 56 SSW 10 17 29.62 1003 10 16.09344 0 0
12:35 am 00:35 Clear 84 29 67 19.5 57 57 SSW 14 22 29.62 1003 10 16.09344 0 0
12:55 am 00:55 Clear 83 28.5 66 18.9 56 56 SSW 10 17 29.62 1003 10 16.09344 0 0
1:15 am 01:15 Clear 81 27.4 66 19 60 60 S 8 13 29.65 1004 10 16.09344 0 0
1:35 am 01:35 Clear 78 25.6 66 19.1 67 67 SW 7 11 29.65 1004 10 16.09344 0 0
1:55 am 01:55 Clear 80 26.5 64 17.5 58 58 SW 8 13 29.65 1004 10 16.09344 0 0
2:15 am 02:15 Clear 80 26.8 63 17.3 56 56 SW 8 13 29.65 1004 10 16.09344 0 0
2:35 am 02:35 Clear 78 25.7 64 17.5 61 61 SW 12 19 29.65 1004 10 16.09344 0 0
2:55 am 02:55 Clear 79 26 64 17.6 60 60 SW 8 13 29.65 1004 10 16.09344 0 0
3:15 am 03:15 Clear 78 25.6 65 18.1 63 63 SW 7 11 29.65 1004 10 16.09344 0 0
3:35 am 03:35 Clear 78 25.5 65 18.1 64 64 SSW 10 17 29.65 1004 10 16.09344 0 0
3:55 am 03:55 Clear 78 25.5 64 18 63 63 SW 7 11 29.65 1004 10 16.09344 0 0
4:15 am 04:15 Clear 76 24.6 64 18 67 67 SW 5 7 29.65 1004 10 16.09344 0 0
4:35 am 04:35 Clear 76 24.2 64 18 68 68 W 3 6 29.68 1005 10 16.09344 0 0
4:55 am 04:55 Clear 74 23.1 65 18.1 74 74 Calm 29.68 1005 10 16.09344 0 0
5:15 am 05:15 Clear 75 23.8 64 18 70 70 S 5 7 29.68 1005 10 16.09344 0 0
5:35 am 05:35 Clear 74 23.4 65 18.3 73 73 S 6 9 29.68 1005 10 16.09344 0 0
5:55 am 05:55 Clear 75 23.7 66 18.8 74 74 SSW 6 9 29.68 1005 10 16.09344 0 0
6:15 am 06:15 Clear 74 23.3 66 19 77 77 S 7 11 29.68 1005 10 16.09344 0 0
6:35 am 06:35 Sunny 74 23.3 67 19.2 78 78 SSW 3 6 29.68 1005 10 16.09344 0 0
6:55 am 06:55 Sunny 73 23 67 19.3 80 80 SSW 7 11 29.68 1005 10 16.09344 0 0
7:15 am 07:15 Sunny 74 23.6 67 19.5 78 78 SSW 6 9 29.68 1005 10 16.09344 0 0
7:35 am 07:35 Sunny 75 24.1 67 19.6 76 76 SSW 7 11 29.68 1005 10 16.09344 0 0
7:55 am 07:55 Sunny 77 24.9 67 19.7 73 73 SSW 9 15 29.65 1004 10 16.09344 0 0
8:15 am 08:15 Sunny 78 25.5 68 19.8 71 71 S 10 17 29.65 1004 10 16.09344 0 0
8:35 am 08:35 Sunny 78 25.8 68 20 70 70 SSW 13 20 29.65 1004 10 16.09344 0 0
8:55 am 08:55 Sunny 79 26 68 20.2 70 70 SW 13 20 29.65 1004 10 16.09344 0 0
9:15 am 09:15 Sunny 79 26.2 69 20.3 70 70 SW 12 19 29.65 1004 10 16.09344 0 0
9:35 am 09:35 Sunny 80 26.7 69 20.6 69 69 SW 10 17 29.65 1004 10 16.09344 0 0
9:55 am 09:55 Sunny 81 27.2 70 21.3 70 70 SW 8 13 29.65 1004 10 16.09344 0 0
10:15 am 10:15 Sunny 82 27.6 70 21 67 67 SW 9 15 29.65 1004 10 16.09344 0 0
10:35 am 10:35 Sunny 82 28 70 21.1 66 66 SW 8 13 29.65 1004 10 16.09344 0 0
10:55 am 10:55 Sunny 83 28.2 70 21.2 66 66 SW 10 17 29.65 1004 10 16.09344 0 0
11:15 am 11:15 Sunny 84 29 71 21.9 66 66 SSW 8 13 29.62 1003 10 16.09344 0 0
11:35 am 11:35 Sunny 84 29.1 72 22.2 66 66 SW 7 11 29.62 1003 10 16.09344 0 0
11:55 am 11:55 Sunny 85 29.7 71 21.8 63 63 SSW 10 17 29.62 1003 10 16.09344 0 0
12:15 pm 12:15 Sunny 87 30.5 72 22.4 62 62 S 8 13 29.62 1003 10 16.09344 0 0
12:35 pm 12:35 Sunny 88 31 72 22.1 59 59 S 10 17 29.62 1003 10 16.09344 0 0
12:55 pm 12:55 Sunny 89 31.4 73 22.6 60 60 SSW 9 15 29.62 1003 10 16.09344 0 0
1:15 pm 13:15 Sunny 89 31.6 71 21.9 56 56 SSW 8 13 29.62 1003 10 16.09344 0 0
1:35 pm 13:35 Sunny 90 32 74 23.2 60 60 SW 7 11 29.62 1003 10 16.09344 0 0
1:50 pm 13:50 Sunny 89 31.7 73 22.9 60 60 SW 8 13 29.62 1003 10 16.09344 0 0
2:15 pm 14:15 Sunny 91 32.5 74 23.3 58 58 WSW 6 9 29.56 1001 10 16.09344 0 0
2:35 pm 14:35 Sunny 92 33.2 73 22.8 54 54 WSW 6 9 29.56 1001 10 16.09344 0 0
2:55 pm 14:55 Sunny 93 33.8 73 22.9 53 53 SSW 8 13 29.56 1001 10 16.09344 0 0
3:15 pm 15:15 Sunny 94 34.2 72 22.4 50 50 SSW 6 9 29.56 1001 10 16.09344 0 0
3:35 pm 15:35 Sunny 94 34.5 65 18.6 39 39 W 5 7 29.56 1001 10 16.09344 0 0
3:55 pm 15:55 Sunny 94 34.7 66 18.9 39 39 W 3 6 29.56 1001 10 16.09344 0 0
4:15 pm 16:15 Sunny 96 35.6 60 15.5 30 30 Calm 29.56 1001 10 16.09344 0 0
4:35 pm 16:35 Sunny 96 35.6 64 17.8 35 35 SSE 3 6 29.56 1001 10 16.09344 0 0
4:55 pm 16:55 Sunny 95 35.2 67 19.2 39 39 Calm 29.56 1001 10 16.09344 0 0
5:15 pm 17:15 Sunny 95 35 69 20.8 43 43 Calm 29.56 1001 10 16.09344 0 0
5:35 pm 17:35 Sunny 94 34.7 73 22.6 49 49 SSE 3 6 29.56 1001 10 16.09344 0 0
5:55 pm 17:55 Sunny 95 34.9 74 23.5 52 52 ESE 3 6 29.56 1001 10 16.09344 0 0
6:15 pm 18:15 Sunny 94 34.6 76 24.4 55 55 SSE 5 7 29.56 1001 10 16.09344 0 0
6:35 pm 18:35 Sunny 94 34.5 75 24.1 55 55 SE 3 6 29.53 1000 10 16.09344 0 0
6:55 pm 18:55 Sunny 94 34.3 78 25.6 60 60 SSE 5 7 29.53 1000 10 16.09344 0 0
7:15 pm 19:15 Sunny 93 34.1 77 25.1 59 59 SSE 3 6 29.56 1001 10 16.09344 0 0
7:35 pm 19:35 Sunny 93 33.7 79 26.2 65 65 SSE 5 7 29.56 1001 10 16.09344 0 0
8:20 pm 20:20 Sunny 90 32 80 26.6 73 73 SE 3 6 29.56 1001 10 16.09344 0 0
8:35 pm 20:35 Sunny 89 31.4 79 26.1 73 73 SE 5 7 29.59 1002 10 16.09344 0 0
8:55 pm 20:55 Sunny 86 29.9 78 25.4 77 77 Calm 29.59 1002 10 16.09344 0 0
9:15 pm 21:15 Clear 84 28.7 78 25.6 83 83 Calm 29.59 1002 10 16.09344 0 0
9:35 pm 21:35 Clear 81 27.4 78 25.7 90 90 SE 5 7 29.62 1003 10 16.09344 0 0
9:55 pm 21:55 Clear 82 28 77 24.9 83 83 SSE 3 6 29.62 1003 10 16.09344 0 0
10:15 pm 22:15 Clear 82 27.7 76 24.6 83 83 SSE 5 7 29.62 1003 10 16.09344 0 0
10:35 pm 22:35 Clear 80 26.5 74 23.1 82 82 SSE 5 7 29.62 1003 10 16.09344 0 0
10:55 pm 22:55 Clear 78 25.7 73 23 85 85 SSE 5 7 29.62 1003 10 16.09344 0 0
11:15 pm 23:15 Clear 79 25.9 73 22.5 82 82 SSE 3 6 29.62 1003 10 16.09344 0 0
11:35 pm 23:35 Clear 78 25.8 73 22.5 82 82 SSE 7 11 29.62 1003 10 16.09344 0 0
11:55 pm 23:55 Clear 79 26.2 73 22.8 82 82 S 9 15 29.62 1003 10 16.09344 0 0

Powered by AerisWeather